Location: Feydey
(46.3431°N, 7.0106°E)
Time: 23:40:59
(UTC+00:00)

Meteor 1-27 - Pass Details

Date: 20 June 2021
Orbit: 838 x 892 km, 81.2° (Epoch: 23 July)

Event Time Altitude Azimuth Distance (km) Brightness Sun altitude
Rises 23:16:47 0° 351° (N) 3,404 9.0 -20.1°
Reaches altitude 10° 23:19:15 10° 355° (N) 2,464 7.8 -20.1°
Maximum altitude 23:24:46 61° 76° (ENE) 950 4.5 -20.2°
Enters shadow 23:27:13 33° 144° (SE) 1,387 4.9 -20.2°
